EW6492 Weather Reports


time (UTC)temp
C
wind
direction
speed
KPH
gust
KPH
rain 1hr
cm
rain 24hr
cm
rain mn
cm
humidity
%
barometer
mb
20260507154605 13 319 3.2 14.5 0.00 0.00 0.00 42 965.1
20260507153052 13 336 4.8 11.3 0.00 0.00 0.00 43 964.9
20260507151550 13 329 1.6 9.7 0.00 0.00 0.00 43 964.8
20260507150053 12 332 3.2 11.3 0.00 0.00 0.00 45 964.9
20260507144548 12 320 1.6 11.3 0.00 0.00 0.00 44 964.8
20260507143046 12 329 3.2 9.7 0.00 0.00 0.00 43 964.9
20260507141544 11 86 3.2 11.3 0.00 0.00 0.00 45 964.9
20260507140041 11 293 3.2 14.5 0.00 0.00 0.00 47 965.1
20260507134539 11 334 1.6 12.9 0.00 0.00 0.00 49 965.0
20260507133035 11 323 3.2 14.5 0.00 0.00 0.00 54 965.2
20260507131533 10 333 1.6 12.9 0.00 0.00 0.00 56 965.2
20260507130038 10 340 1.6 8.0 0.00 0.00 0.00 59 965.1
20260507124530 10 209 1.6 8.0 0.00 0.00 0.00 61 965.2
20260507123026 9 271 1.6 8.0 0.00 0.00 0.00 64 965.3
20260507121524 8 319 0.0 9.7 0.00 0.00 0.00 66 965.4
20260507120024 8 313 1.6 8.0 0.00 0.00 0.00 70 965.4
20260507114522 7 315 0.0 8.0 0.00 0.00 0.00 71 965.3
20260507113020 7 316 0.0 6.4 0.00 0.00 0.00 75 965.4
20260507111517 6 319 0.0 6.4 0.00 0.00 0.00 79 965.2
20260507110016 6 333 0.0 6.4 0.00 0.00 0.00 84 965.0
20260507104515 5 51 0.0 1.6 0.00 0.00 0.00 88 964.9
20260507103026 5 319 0.0 0.0 0.00 0.00 0.00 90 964.8
20260507101513 5 319 0.0 1.6 0.00 0.00 0.00 90 964.7
20260507100011 6 319 0.0 0.0 0.00 0.00 0.00 90 964.7
20260507094512 6 319 0.0 0.0 0.00 0.03 0.00 90 964.7
20260507093010 6 319 0.0 0.0 0.00 0.03 0.00 91 964.7
20260507091508 6 319 0.0 1.6 0.00 0.03 0.00 93 964.6
20260507090006 6 319 0.0 0.0 0.00 0.03 0.00 93 964.5
20260507084505 6 319 0.0 0.0 0.00 0.05 0.00 93 964.4
20260507083002 6 319 0.0 0.0 0.00 0.05 0.00 93 964.3
20260507081502 6 319 0.0 0.0 0.00 0.05 0.00 93 964.2
20260507080002 6 319 0.0 0.0 0.00 0.05 0.00 93 964.2
20260507074600 6 319 0.0 1.6 0.00 0.15 0.00 92 964.1
20260507073058 6 319 0.0 0.0 0.00 0.15 0.00 92 964.2
20260507071610 6 319 0.0 0.0 0.00 0.15 0.00 91 964.1
20260507070056 6 319 0.0 0.0 0.00 0.15 0.00 91 964.1
20260507064554 7 319 0.0 0.0 0.00 0.43 0.00 91 964.1
20260507063055 7 319 0.0 0.0 0.00 0.43 0.00 90 964.2
20260507061556 7 319 0.0 0.0 0.00 0.43 0.00 89 964.2
20260507060048 7 319 0.0 0.0 0.00 0.43 0.00 89 964.0
20260507054547 7 319 0.0 0.0 0.00 0.71 0.00 88 964.2
20260507053111 7 319 0.0 0.0 0.00 0.71 0.00 87 964.3
20260507051545 8 319 0.0 0.0 0.00 0.71 0.00 85 964.1
20260507050044 8 319 0.0 0.0 0.00 0.71 0.00 85 964.2
20260507044539 8 319 0.0 1.6 0.00 0.86 0.00 83 964.3
20260507043038 8 319 0.0 0.0 0.00 0.86 0.00 81 964.2
20260507041535 8 319 0.0 0.0 0.00 0.86 0.00 80 964.2
20260507040031 9 319 0.0 0.0 0.00 0.86 0.00 78 964.0
20260507034537 10 319 0.0 0.0 0.00 0.86 0.86 76 964.1
20260507033039 10 319 0.0 0.0 0.00 0.86 0.86 73 964.2
20260507031530 10 319 0.0 1.6 0.00 0.86 0.86 72 964.1
20260507030030 10 319 0.0 1.6 0.00 0.86 0.86 71 964.2
20260507024533 11 319 0.0 1.6 0.00 0.91 0.86 68 964.1
20260507023033 11 319 0.0 1.6 0.00 0.91 0.86 66 963.9
20260507021526 11 319 0.0 1.6 0.00 0.91 0.86 65 963.9
20260507020026 12 319 0.0 1.6 0.00 0.91 0.86 65 963.9
20260507014525 12 319 0.0 0.0 0.00 1.17 0.86 63 963.8
20260507013023 12 319 0.0 1.6 0.00 1.17 0.86 62 963.6
20260507011522 12 319 0.0 3.2 0.00 1.17 0.86 62 963.3
20260507010025 13 319 0.0 3.2 0.00 1.17 0.86 61 963.3
20260507004531 13 319 0.0 6.4 0.00 1.22 0.86 60 963.2
20260507003019 13 309 0.0 3.2 0.00 1.22 0.86 58 963.2
20260507001518 13 325 0.0 9.7 0.00 1.22 0.86 56 963.0
20260507000018 14 317 0.0 6.4 0.00 1.22 0.86 55 963.0
20260506234516 14 304 0.0 6.4 0.00 1.24 0.86 55 962.5
20260506233016 14 315 3.2 8.0 0.00 1.24 0.86 53 962.6
20260506231515 14 309 1.6 9.7 0.00 1.24 0.86 53 962.3
20260506230015 14 315 3.2 9.7 0.00 1.24 0.86 55 962.2
20260506224515 15 5 0.0 6.4 0.00 1.24 0.86 56 962.4
20260506223014 15 289 0.0 9.7 0.00 1.24 0.86 53 962.5
20260506221513 15 268 0.0 8.0 0.00 1.24 0.86 56 962.6
20260506220029 15 331 1.6 6.4 0.00 1.24 0.86 53 962.7
20260506214512 15 309 1.6 6.4 0.00 1.30 0.86 52 962.7
20260506213011 15 326 0.0 11.3 0.00 1.30 0.86 52 962.5
20260506211511 15 321 3.2 11.3 0.00 1.30 0.86 51 962.4
20260506210013 15 350 1.6 9.7 0.00 1.30 0.86 53 962.2
20260506204510 15 331 1.6 11.3 0.00 1.65 0.86 52 962.2
20260506203018 15 316 3.2 11.3 0.00 1.65 0.86 53 962.2
20260506201509 15 315 1.6 9.7 0.00 1.65 0.86 51 962.3
20260506200008 16 37 1.6 11.3 0.00 1.65 0.86 51 962.2
20260506194508 16 320 0.0 8.0 0.00 1.93 0.86 51 962.2
20260506193007 16 232 1.6 8.0 0.00 1.93 0.86 50 962.1
20260506191507 16 323 4.8 11.3 0.00 1.93 0.86 48 961.9
20260506190006 16 329 4.8 11.3 0.00 1.93 0.86 50 961.8
20260506184504 16 330 3.2 12.9 0.00 1.93 0.86 53 961.8
20260506183005 16 336 3.2 9.7 0.00 1.93 0.86 52 961.8
20260506181501 16 336 4.8 11.3 0.00 1.93 0.86 51 961.8
20260506180116 15 306 3.2 12.9 0.00 1.93 0.86 54 962.2
20260506174559 15 330 1.6 11.3 0.00 1.93 0.86 55 962.2
20260506173134 15 260 0.0 8.0 0.00 1.93 0.86 55 962.3
20260506171556 15 318 0.0 11.3 0.00 1.93 0.86 57 962.4
20260506170055 14 328 1.6 12.9 0.00 1.93 0.86 61 962.4
20260506164555 13 110 3.2 16.1 0.00 1.93 0.86 62 962.6
20260506163059 13 321 3.2 11.3 0.00 1.93 0.86 60 962.4
20260506161556 13 291 0.0 14.5 0.00 1.93 0.86 64 962.6
20260506160051 12 324 0.0 8.0 0.00 1.93 0.86 68 962.4